WESTFORD NEEDLES, 18615

Orbit data source: Space-Track

WESTFORD NEEDLES, 18615 is space debris in LEO originally from a launch on Thu, 09 May 1963 UTC launched from the Air Force Western Test Range (AFWTR). Debris objects in space refer to the collection of defunct objects orbiting the Earth. Examples of debris include non-operational satellites, rocket bodies, and fragments generated from explosions, collisions, or faulty payload assembly.

Loading next visibility...
Identifier
18615, 1963-014DK
Orbit
LEO
Country
Flag of USUS
Related business
Manufacturer
Unknown
Mission
Spacecraft
Bus & Motor
Unknown
Mass
Unknown
Launch date (UTC)
1963-05-09 (63 years ago)
Launch vehicle
Unknown
Launch site
Air Force Western Test Range (AFWTR)
Object type
Payload
Rocket body
Debris
Shape & HBR
Unknown shape, 0.2 m
Radar Cross Section
Small (<0.1 m²)

Expand to show TLE details & history
Last TLE update: 22 hours ago

TLE from 22 hours ago
0 WESTFORD NEEDLES
1 18615U 63014DK  25340.42399873  .00000368  00000-0  36627-1 0  9996
2 18615  86.4401 131.8078 1688006 323.5134  45.7952  8.75249211 26250
Epoch: 2025-12-06T10:10Z
TLE epoch observation values (Epoch: 2025-12-06T10:10:33.490Z)
Latitude
25.30391°
Longitude
-94.60567°
Altitude
2,573.546 km
Speed
7.002 km/s
True Right ascension
08h 53m 56s
True Declination
25° 11' 53"
Sunlit
Object was in daylight at epoch
Visualization orbit readout
Latitude
Unknown
Longitude
Unknown
Altitude
Unknown
Speed
Unknown
Apparent Right ascension
Unknown
Apparent Declination
Unknown
Sunlit
N/A
Visualization observer readout
Local Sidereal Time
06:12:09
Azimuth
Unknown
Elevation
Unknown
Doppler factor
Unknown
Orbital elements
Apogee altitude
5,244.061 km
Perigee altitude
1,887.057 km
Semi-major axis
9,943.696 km
Eccentricity
0.1688
Inclination
86.4401°
RAAN
131.8078°
Arg. of periapsis
323.5134°
True anomaly
61.81853°
Mean anomaly
45.7952°
Eccentric anomaly
53.57753°
Mean motion
2.18888 °/min
Orbital period
164.47 mins
BSTAR
0.036627

Documentation

Showing up to 5 results
|